www.pogodaiklimat.ru

Погода и климат >> Архив погоды >> Украина >> Хмельник


ПОГОДА в Хмельнике

  • Прогноз погоды в Хмельнике
  • Монитор погоды в Хмельнике
  • Климат города

АРХИВ ПОГОДЫ в Хмельнике

Время (UTC), дата Ветер
(напр.,м/с)
 
Видим.   Явления Облачность Т
(С)
Тd
(С)
f
(%)
Тe
(С)
Тes
(С)
Комфортность P
(гПа)
Po
(гПа)
Тmin
(С)
Tmax
(С)
R
(мм)
R24
(мм)
S
(см)
00 17.06 С 2 10 км 10/10 1000 м
[Sc]
+16.4 +14.3 87 +16 +16 1014.4 1014.0
03 17.06 С 3 14 км 10 баллов +15.7 +14.6 93 507.3
06 17.06 С 2 8000 м слабый ливневой дождь 10/4 600 м
[Cb cap Ac und]
+16.0 +15.1 94 +16 +17 1013.3 1013.0 +15.7 0.6
09 17.06 СВ 3 17 км 7 баллов +21.1 +17.7 81 0.0
12 17.06 СВ 3 22 км {ливн. осадки} 8/3 600 м
[Cu hum Ci sp]
+24.7 +18.3 68 +29 +37 душно 1011.7 1012.0 0.3
15 17.06 СВ 1 23 км 10/3 600 м
[Cb calv Ac As]
+23.2 +18.4 74 +29 +30 душно 1011.6 1012.0
18 17.06 ЮВ 2 19 км гроза без осадков {ливн. осадки} 10/3 600 м
[Cb calv Ac und]
+18.4 +16.8 90 +20 +20 1013.2 1013.0 +25.5 0.8
21 17.06 штиль 0 10 км ясно +16.4 +15.7 96 +16 +16 1013.5 1014.0
00 18.06 штиль 0 10 км ясно +15.8 +15.1 96 +16 +16 1013.5 1014.0
03 18.06 штиль 0 17 км 7 баллов +15.4 +14.4 94 0.0
06 18.06 СВ 2 20 км 8/0
[Ac trans]
+20.8 +18.4 86 +26 +29 душно 1013.5 1014.0 +15.2
09 18.06 СВ 2 28 км 4/0
[Ac trans Ci fib]
+26.0 +18.8 65 +31 +45 очень
душно
1013.7 1014.0
12 18.06 В 3 29 км 4/4 600 м
[Cu med, cong]
+27.2 +15.6 49 +30 +38 душно 1013.2 1013.0
15 18.06 В 2 20 км гроза без осадков 6 баллов +21.6 +17.6 78 0.0
18 18.06 СЗ 1 16 км {гроза, ливн. осадки} 10/4 600 м
[Cb calv Ci fib]
+19.4 +17.7 90 +23 +23 комфорт 1015.4 1015.0 +28.4 10
21 18.06 СЗ 1 4000 м дымка ясно +17.8 +17.1 96 +19 +19 1016.9 1017.0
00 19.06 штиль 0 4000 м дымка 8/0
[Ac trans]
+16.3 +15.6 96 +16 +16 1017.1 1017.0
03 19.06 штиль 0 20 км ясно +16.7 +15.0 90 0.0
06 19.06 СЗ 1 23 км 3/0
[Ci sp]
+22.2 +19.0 82 +28 +36 душно 1017.4 1017.0 +16.3
09 19.06 СЗ 1 27 км 4/4 600 м
[Cu med, cong]
+25.8 +18.4 64 +31 +42 очень
душно
1017.3 1017.0
12 19.06 СЗ 2 30 км 4/4 600 м
[Cu med, cong]
+27.2 +16.2 51 +31 +40 душно 1016.8 1017.0
15 19.06 С 2 30 км 6/3 600 м
[Cu hum Ci sp]
+27.8 +16.8 51 +31 +35 душно 1015.9 1016.0
18 19.06 штиль 0 27 км ясно +25.4 +19.2 69 +31 +31 очень
душно
1016.4 1016.0 +28.7
21 19.06 штиль 0 10 км ясно +24.0 +20.6 81 +30 +30 очень
душно
-169.7 1017.0
00 20.06 штиль 0 10 км ясно +22.8 +20.6 87 +30 +30 очень
душно
1018.1 1018.0
03 20.06 СЗ 1 19 км 4 балла +19.0 +17.7 92 0.0
06 20.06 ЮЗ 1 25 км 8/0
[Ac trans]
+20.9 +16.1 74 +25 +30 комфорт 1020.3 1020.0 +19.0
09 20.06 В 1 30 км 1/1 600 м
[Cu hum]
+26.4 +14.6 48 +29 +47 жарко 1019.9 1020.0
12 20.06 ЮЗ 2 30 км 4/4 600 м
[Cu med, cong]
+27.3 +14.5 45 +30 +39 душно 1019.3 1019.0
15 20.06 З 2 30 км 6/4 600 м
[Cu med, cong Ac trans]
+25.6 +15.2 53 +29 +31 душно 1018.5 1019.0
18 20.06 З 1 28 км 3/3 600 м
[Cu hum]
+22.7 +15.4 63 +27 +27 душно 1018.3 1018.0 +29.0
21 20.06 штиль 0 10 км ясно +18.6 +15.9 84 +19 +19 -169.7 1019.0
00 21.06 штиль 0 10 км ясно +16.3 +15.2 93 +16 +16 1019.5 1020.0
03 21.06 ЮЗ 1 16 км ясно +16.0 +14.9 93 0.0
06 21.06 З 1 21 км 3/0
[Ci fib]
+22.3 +16.5 70 +27 +35 душно 1017.9 1018.0 +15.8
09 21.06 З 1 28 км 6/4 600 м
[Cu hum Ci fib]
+26.1 +14.6 49 +29 +40 жарко 1016.1 1016.0
12 21.06 ЮЗ 2 30 км 6/4 600 м
[Cu hum Ci fib]
+28.4 +15.1 44 +31 +40 душно 1013.8 1014.0
15 21.06 ЮЗ 1 30 км 6/3 600 м
[Cu hum Ci fib]
+28.8 +16.9 49 +33 +37 очень
душно
1011.5 1012.0
18 21.06 ЮЗ 1 28 км 6/0
[Ci fib]
+24.8 +17.1 62 +29 +29 душно 1011.4 1011.0 +29.2
21 21.06 штиль 0 10 км ясно +20.8 +17.2 80 +24 +24 комфорт -168.6 1010.0
00 22.06 ЮЗ 1 10 км ясно +19.8 +16.9 83 +23 +23 комфорт 1009.4 1009.0
03 22.06 Ю 1 18 км 9 баллов +20.0 +16.6 81 0.0
06 22.06 ЮЗ 2 20 км 8/1 600 м
[Cu hum Ac trans]
+24.1 +19.1 74 +29 +33 душно 1008.5 1009.0 +19.4
09 22.06 З 3 25 км 10 баллов +19.4 +14.6 74 0.0
12 22.06 З 3 27 км {ливн. осадки} 9/4 600 м
[Cb calv Ac trans]
+17.1 +12.6 75 +17 +21 1011.9 1012.0 2.0
15 22.06 З 4 26 км 8/0
[Ac trans]
+16.8 +13.4 80 +16 +18 1012.3 1012.0
18 22.06 СЗ 2 25 км 9/0
[Ac trans]
+16.0 +10.3 69 +16 +16 1012.2 1012.0 +24.6 2
21 22.06 СЗ 2 10 км 10/4 600 м
[Sc Ac As]
+14.4 +10.6 78 +14 +14 1012.3 1012.0
00 23.06 СЗ 1 4000 м слабый ливневой дождь 10/10 750 м
[Cb cap]
+13.5 +11.9 90 +14 +14 1012.2 1012.0 0.8
03 23.06 СЗ 2 21 км 10 баллов +12.4 +11.1 92 0.0
06 23.06 СЗ 2 8000 м слабый ливневой дождь 10/10 450 м
[Cb cap]
+10.8 +10.0 95 +9 +9 1012.3 1012.0 +10.8 5
09 23.06 СЗ 4 7000 м слабый ливневой дождь 10 баллов +10.5 +9.7 95 0.0
12 23.06 СЗ 3 8000 м слабый ливневой дождь 10/10 420 м
[Cb cap]
+10.7 +10.2 97 +9 +9 1012.7 1013.0 4.0
15 23.06 СЗ 2 6000 м слабый ливневой дождь 10 баллов +11.0 +10.4 96 0.0
18 23.06 З 1 8000 м слабый ливневой дождь 10 баллов +10.0 +9.1 94 0.0 +11.0 7
21 23.06 З 1 10 км 2 балла +8.2 +7.0 92 0.0

 

Местоположение метеостанции Хмельник (Винницкая область, Украина): широта 49.34 долгота 27.56 высота над уровнем моря 284 м.

В архиве по умолчанию представлена погода в Хмельнике за последнюю неделю. Архивные данные за месяц целиком и за предыдущие месяцы, начиная с января 2011 года, Вы можете получить, выбрав интересующий диапазон дат из раскрывающегося списка и нажав кнопку "Ввод!".


*Определитесь, кто Вы:
робот инопланетянин человек

Внимание! Время в таблицах - всемирное. Для получения местного времени необходимо прибавить поправку, которая в Хмельнике равна 2 ч.

Смотрите также архив погоды в соседних городах и на ближайших метеорологических станциях:

Погода в Хмельницком (Хмельницкая область, Украина) (43 км)
Погода в Жмеринке (Винницкая область, Украина) (51 км)
Погода в Новой Ушице (Хмельницкая область, Украина) (58 км)
Погода в Виннице (Винницкая область, Украина) (76 км)
Погода в Новоднестровске (Черновицкая область, Украина) (86 км)
Погода в Шепетовке (Хмельницкая область, Украина) (100 км)
Погода в Могилев-Подольском (Винницкая область, Украина) (100 км)
Погода в Каменец-Подольском (Хмельницкая область, Украина) (101 км)
Погода в Белополе (Винницкая область, Украина) (110 км)
Погода в Бричанах (Молдова) (116 км)

Пояснения к столбцам:

Ветер - указаны скорость ветра в м/с - средняя за 10 мин, порывы в срок и между сроками (в фигурных скобках) и направление, откуда дует ветер: С - северный, СВ - северо-восточный, В - восточный, ЮВ - юго-восточный, Ю - южный, ЮЗ - юго-западный, З - западный, СЗ - северо-западный.
Видимость - горизонтальная дальность видимости в метрах или километрах. При видимости от 1 до 10 км при отсутствии осадков обычно наблюдается дымка, при ухудшении видимости до 1 км и менее - туман. В сухую погоду видимость может ухудшаться дымом, пылью или мглою.
Явления - указаны атмосферные явления, наблюдавшиеся в срок или в последний час перед сроком; фигурными скобками обозначены явления, наблюдавшиеся между сроками (за 1-3 часа до срока); квадратными скобками обозначены град или гололедные отложения с указанием их диаметра в мм.
Облачность - указаны через наклонную черту общая и нижняя облачность в баллах и высота нижней границы облаков в метрах; квадратными скобками обозначены формы облаков: Ci - перистые, Cs - перисто-слоистые, Cc - перисто-кучевые, Ac - высококучевые, As - высокослоистые, Sc - слоисто-кучевые, Ns - слоисто-дождевые, Cu - кучевые, Cb - кучево-дождевые. Подробнее классификацию облаков см. в Атласе облаков (PDF).
T - Температура воздуха - температура, измеренная на высоте 2 м над землей.
Td - Температура точки росы - температура, при понижении до которой содержащийся в воздухе водяной пар достигнет насыщения.
f - Относительная влажность воздуха - влажноcть воздуха, измеренная на высоте 2 м над землей.
Te - Эффективная температура - температура, которую ощущает одетый по сезону человек в тени. Характеристика душности погоды. При расчете учитывается влияние влажности воздуха и скорости ветра на теплоощущения человека.
Tes - Эффективная температура на солнце - температура, которую ощущает человек, с поправкой на солнечный нагрев. Характеристика знойности погоды. Зависит от высоты солнца над горизонтом, облачности и скорости ветра. Ночью, в пасмурную погоду, а также при ветре 12 м/с и более поправка равна нулю.
P - Атмосферное давление - приведенное к уровню моря атмосферное давление.
Po - Атмосферное давление - измеренное на уровне метеостанции атмосферное давление.
Tmin - Минимальная температура - минимум температуры воздуха на высоте 2 м над землей.
Tmax - Максимальная температура - максимум температуры воздуха на высоте 2 м над землей.
R - Количество осадков - Количество выпавших осадков за период времени, мм. При наведении курсора мыши на число - период времени, за который выпало указанное количество осадков.
R24 - Количество осадков - Количество выпавших осадков за 24 часа, мм.
S - Снежный покров - Высота снежного покрова, см. При наведении курсора мыши на число - состояние снежного покрова и степень покрытия местности в баллах.